TimeCDT,TemperatureF,Dew PointF,Humidity,Sea Level PressureIn,VisibilityMPH,Wind Direction,Wind SpeedMPH,Gust SpeedMPH,PrecipitationIn,Events,Conditions,WindDirDegrees,DateUTC
12:53 AM,35.1,28.0,76,30.14,10.0,SSW,4.6,-,N/A,,Clear,200,2012-10-08 05:53:00
1:53 AM,35.1,28.9,78,30.14,10.0,South,6.9,-,N/A,,Clear,180,2012-10-08 06:53:00
2:53 AM,34.0,28.9,82,30.13,10.0,South,6.9,-,N/A,,Clear,190,2012-10-08 07:53:00
3:53 AM,35.1,28.9,78,30.11,10.0,SSW,8.1,-,N/A,,Clear,200,2012-10-08 08:53:00
4:53 AM,37.0,28.9,73,30.11,10.0,SSW,9.2,-,N/A,,Clear,210,2012-10-08 09:53:00
5:53 AM,35.1,28.9,78,30.11,10.0,SSW,8.1,-,N/A,,Clear,200,2012-10-08 10:53:00
6:53 AM,35.1,28.9,78,30.11,10.0,SSW,9.2,-,N/A,,Clear,200,2012-10-08 11:53:00
7:53 AM,36.0,30.0,79,30.11,10.0,South,8.1,-,N/A,,Clear,190,2012-10-08 12:53:00
8:53 AM,42.1,32.0,67,30.11,10.0,SSW,9.2,-,N/A,,Clear,210,2012-10-08 13:53:00
9:53 AM,48.9,34.0,56,30.10,10.0,SSW,15.0,21.9,N/A,,Clear,210,2012-10-08 14:53:00
10:53 AM,55.9,34.0,44,30.08,10.0,South,12.7,24.2,N/A,,Clear,190,2012-10-08 15:53:00
11:53 AM,59.0,34.0,39,30.06,10.0,South,17.3,23.0,N/A,,Clear,190,2012-10-08 16:53:00
12:53 PM,62.1,34.0,35,30.04,10.0,South,19.6,25.3,N/A,,Clear,180,2012-10-08 17:53:00
1:53 PM,66.0,34.0,30,30.00,10.0,SSW,20.7,27.6,N/A,,Clear,210,2012-10-08 18:53:00
2:53 PM,66.0,34.0,30,29.97,10.0,SSW,18.4,28.8,N/A,,Clear,200,2012-10-08 19:53:00
3:53 PM,66.9,34.0,30,29.95,10.0,SSW,17.3,25.3,N/A,,Clear,210,2012-10-08 20:53:00
4:53 PM,66.9,33.1,28,29.93,10.0,SSW,20.7,28.8,N/A,,Clear,200,2012-10-08 21:53:00
5:53 PM,64.9,33.1,31,29.93,10.0,South,13.8,-,N/A,,Clear,190,2012-10-08 22:53:00
6:53 PM,60.1,34.0,38,29.94,10.0,South,9.2,-,N/A,,Clear,180,2012-10-08 23:53:00
7:53 PM,57.0,35.1,44,29.94,10.0,SSE,9.2,-,N/A,,Clear,160,2012-10-09 00:53:00
9:53 PM,53.1,35.1,50,29.95,10.0,South,10.4,-,N/A,,Clear,170,2012-10-09 02:53:00
10:53 PM,53.1,35.1,50,29.94,10.0,South,12.7,20.7,N/A,,Clear,180,2012-10-09 03:53:00
11:53 PM,52.0,36.0,54,29.93,10.0,South,13.8,-,N/A,,Clear,190,2012-10-09 04:53:00